Regional Weather Roundup
Issued by NWS Charleston, SC

Current Version | Previous Version | Graphics & Text | Print | Product List | Glossary On
Versions: 1 2 3 4 5 6 7 8 9 10 11 12 13 14 15 16 17 18 19 20 21 22 23 24 25 26 27 28 29 30 31 32 33 34 35 36 37 38 39 40 41 42 43 44 45 46 47 48 49 50
000 ASUS42 KCHS 241312 RWRCHS REGIONAL WEATHER ROUNDUP NATIONAL WEATHER SERVICE CHARLESTON SC 900 AM EDT WED MAY 24 2017 NOTE: "FAIR" INDICATES FEW OR NO CLOUDS BELOW 12,000 FEET WITH NO SIGNIFICANT WEATHER AND/OR OBSTRUCTIONS TO VISIBILITY. NOT ALL STATIONS ARE QUALITY CONTROLLED. USE DATA WITH CAUTION... ESPECIALLY DEWPOINT OBSERVATIONS. SCZ027-030-031-034>040-042>050-241400- ...SOUTHEAST SOUTH CAROLINA... CITY SKY/WX TMP DP RH WIND PRES REMARKS N CHARLESTON PTSUNNY 76 70 82 SW7 29.68R WATERFRONT PRK N/A 76 72 87 SW7G15 29.67S JOHNS ISLAND PTSUNNY 77 72 83 SW7G15 29.69S PINOPOLIS N/A 73 72 94 SW10 29.60R MONCKS CORNER CLOUDY 72 70 94 SW12 29.69R SUMMERVILLE CLOUDY 72 70 94 CALM 29.69S BEAUFORT MCAS PTSUNNY 74 73 97 SW12 29.68S BEAUFORT ARPT NOT AVBL HILTON HEAD IS PTSUNNY 77 73 88 SW9 29.70S WALTERBORO CLOUDY 72 70 94 SW7 29.69S ALLENDALE CLOUDY 72 70 94 S5 29.66S ...SOUTHERN MIDLANDS AND PEE DEE... CITY SKY/WX TMP DP RH WIND PRES REMARKS GEORGETOWN CLOUDY 72 72 100 SW7 29.71R KINGSTREE CLOUDY N/A N/A N/A CALM 29.67S ORANGEBURG CLOUDY 71 69 93 SW10 29.67R BARNWELL CLOUDY 73 72 94 SW8 29.66S AIKEN CLOUDY 70 68 94 S7 29.68S MANNING CLOUDY 72 70 94 SW21 29.67S COLUMBIA CLOUDY 72 68 87 S5 29.64S SUMTER CLOUDY 70 68 91 S6 29.64F FLORENCE CLOUDY 71 69 93 SW7 29.68R MYRTLE BEACH MOSUNNY 73 70 88 SW12 29.70R N MYRTLE BEACH MOSUNNY 74 70 87 W6 29.69R $$ GAZ063-065-086>088-099>101-113>116-118-119-134>141-150-241400- ...SOUTHEAST GEORGIA... CITY SKY/WX TMP DP RH WIND PRES REMARKS SAVANNAH ARPT CLOUDY 77 70 79 SW9 29.69R HUNTER AAF PTSUNNY 77 76 98 S8 29.66F FORT STEWART PTSUNNY 75 70 84 S6 29.66F STATESBORO CLOUDY 76 76 100 S8 29.67S SYLVANIA CLOUDY 74 73 97 SW5 29.68S CLAXTON FAIR 75 75 100 S7G18 29.68R ...CSRA...CENTRAL AND FAR SOUTHEAST GEORGIA... CITY SKY/WX TMP DP RH WIND PRES REMARKS THOMSON CLOUDY 70 68 94 W8 29.68S AUGUSTA-BUSH CLOUDY 75 70 84 S7 29.64S AUGUSTA-DANIEL CLOUDY 73 67 81 S8 29.65S SWAINSBORO CLOUDY 72 72 100 SW5 29.67S VIDALIA PTSUNNY 75 72 88 S10 29.66F EASTMAN CLOUDY 74 74 100 SW5 29.67S HAZLEHURST PTSUNNY 76 76 98 SW9 29.65F ALMA CLOUDY 76 71 85 S8 29.68S WAYCROSS CLOUDY 77 77 100 SW12 29.68F JESUP CLOUDY 77 70 78 SW6 29.69F BAXLEY CLOUDY 77 77 100 S12 29.68S BRUNSWICK CLOUDY 77 73 88 S9 29.71F SAINT SIMONS CLOUDY 78 70 76 SW12 29.70F $$ SCZ027-028-034-036>038-045-046-048>050-GAZ119-141-241400- ...LAKE AND SUPPLEMENTAL COASTAL OBSERVATIONS... STATION/POSITION TIME TEMP WIND PRES WAVE SWELL AIR SEA DIR/SP/G HT/PER HT/PER/DIR (UTC) (F) (DEG/KT/KT) (MB) (FT/S) (FT/S/D) WINYAH BAY NOT AVBL LAKE MURRAY 1220 70 210/ 7/ 9 1003.4S ACE BASIN NERRS 1145 74 230/ 2 1005.0 FORT PULASKI 1248 76 220/ 12/ 17 1005.6R SAPELO ISLAND 1200 75 200/ 12 1006.0 $$ ANZ835-935-AMZ111-154-330-350-352-354-370-450-454-472-241400- ...C-MAN AND BUOY OBSERVATIONS... STATION/POSITION TIME TEMP WIND PRES WAVE SWELL AIR SEA DIR/SP/G HT/PER HT/PER/DIR (UTC) (F) (DEG/KT/KT) (MB) (FT/S) (FT/S/D) BUOY 41004 1250 75 76 210/ 21/ 27 1006.0R 6/ 6 3/160/ 8 BUOY 41008 1150 78 78 210/ 19/ 21 1005.5 5/ 5 FOLLY BEACH CMAN 1200 75 240/ 10/ 13 1005.9F CAPERS NEARSHORE 1208 78 76 260/ 16/ 19 1004.9F FRIPP NEARSHORE 1208 77 77 240/ 19/ 27 1004.3F STATION/POSITION TIME TEMP WIND PRES WAVE SWELL AIR SEA DIR/SP/G HT/PER HT/PER/DIR (UTC) (F) (DEG/KT/KT) (MB) (FT/S) (FT/S/D) 5E ST. MARYS GA 1230 79 N/A 3/ 5 FRYING PAN BUOY 1250 77 77 230/ 19/ 23 1006.0R 7/ 8 5/190/ 8 BUOY 41025 1250 73 74 270/ 12/ 12 1005.5R 5/ 8 3/190/ 8 CAPE LOOKOUT NC 1200 71 270/ 8/ 10 1005.0R BUOY 41002 1250 77 76 200/ 21/ 27 1010.6R 9/ 7 2/140/11 BUOY 41010 1250 80 79 200/ 16/ 19 1010.0F 7/ 6 2/170/ 9 ST AUGUSTINE FL 1300 74 77 180/ 12/ 14 1007.9F $$

USA.gov is the U.S. government's official web portal to all federal, state and local government web resources and services.